Cecil Field, FL

9:49 PM EDT on June 22, 2017 (GMT -0400)
Cecil

Weather History for KVQQ - March, 2013

Change the Weather History Date:

Monday, March 18, 2013

  Actual Average (KNIP) Record (KNIP)
Temperature  
Mean Temperature 68 °F -  
Max Temperature 78 °F 72 °F 87 °F (2002)
Min Temperature 57 °F 54 °F 44 °F (2005)
Cooling Degree Days 2    
Growing Degree Days 18 (Base 50)    
Moisture  
Dew Point 58 °F    
Average Humidity 83    
Maximum Humidity 100    
Minimum Humidity 51    
Precipitation  
Precipitation 0.00 in - - ()
Sea Level Pressure  
Sea Level Pressure 29.99 in    
Wind  
Wind Speed 2 mph (SSW)    
Max Wind Speed 16 mph    
Max Gust Speed 23 mph    
Visibility 10 miles    
Events Rain    
Averages and records for this station are not official NWS values.
T = Trace of Precipitation, MM = Missing Value Source: NWS Daily Summary

Daily Weather History Graph

Daily Weather History Graph

Search for Another Location

Airport or City:

Trip Planner

Search our weather history database for the weather conditions in past years. The results will help you decide how hot, cold, wet, or windy it might be!

Date:

Astronomy

Mar. 18, 2013 Rise Set
Actual Time 7:33 AM EDT 7:37 PM EDT
Civil Twilight 7:09 AM EDT 8:01 PM EDT
Nautical Twilight 6:41 AM EDT 8:29 PM EDT
Astronomical Twilight 6:13 AM EDT 8:57 PM EDT
Moon 11:55 AM EDT (3/18) 1:12 AM EDT (3/18)
Length of Visible Light 12h 52m
Length of Day
12h 04m
Waxing Crescent, 40% of the Moon is Illuminated
Mar 18
Waxing Crescent
Mar 19
First Quarter
Mar 27
Full
Apr 3
Last Quarter
Apr 10
New

Hourly Weather History & Observations

Time (EDT) Temp. Dew Point Humidity Pressure Visibility Wind Dir Wind Speed Gust Speed Precip Events Conditions
12:15 AM 60.8 °F 51.8 °F 72% 30.06 in 10.0 mi Calm Calm - N/A   Partly Cloudy
12:35 AM 60.8 °F 53.6 °F 77% 30.07 in 10.0 mi Calm Calm - N/A   Partly Cloudy
12:55 AM 60.8 °F 53.6 °F 77% 30.05 in 10.0 mi Calm Calm - N/A   Scattered Clouds
1:15 AM 59.0 °F 53.6 °F 82% 30.06 in 10.0 mi Calm Calm - N/A   Scattered Clouds
1:35 AM 59.0 °F 53.6 °F 82% 30.05 in 10.0 mi Calm Calm - N/A   Mostly Cloudy
1:55 AM 59.0 °F 53.6 °F 82% 30.05 in 10.0 mi Calm Calm - N/A   Partly Cloudy
2:15 AM 59.0 °F 55.4 °F 88% 30.04 in 10.0 mi Calm Calm - N/A   Partly Cloudy
2:35 AM 59.0 °F 55.4 °F 88% 30.04 in 10.0 mi Calm Calm - N/A   Scattered Clouds
2:55 AM 57.2 °F 55.4 °F 94% 30.04 in 10.0 mi Calm Calm - N/A   Partly Cloudy
3:15 AM 57.2 °F 55.4 °F 94% 30.03 in 10.0 mi Calm Calm - N/A   Scattered Clouds
3:35 AM 57.2 °F 55.4 °F 94% 30.02 in 10.0 mi Calm Calm - N/A   Mostly Cloudy
3:55 AM 57.2 °F 55.4 °F 94% 30.01 in 10.0 mi Calm Calm - N/A   Partly Cloudy
4:15 AM 57.2 °F 55.4 °F 94% 30.00 in 10.0 mi Calm Calm - N/A   Scattered Clouds
4:35 AM 57.2 °F 55.4 °F 94% 30.00 in 10.0 mi Calm Calm - N/A   Scattered Clouds
4:55 AM 57.2 °F 55.4 °F 94% 30.01 in 10.0 mi Calm Calm - N/A   Scattered Clouds
5:15 AM 57.2 °F 55.4 °F 94% 30.01 in 10.0 mi Calm Calm - N/A   Overcast
5:35 AM 57.2 °F 55.4 °F 94% 30.01 in 10.0 mi Calm Calm - N/A   Overcast
5:55 AM 57.2 °F 55.4 °F 94% 30.01 in 10.0 mi Calm Calm - N/A   Overcast
6:15 AM 57.2 °F 57.2 °F 100% 30.02 in 9.0 mi Calm Calm - N/A   Mostly Cloudy
6:35 AM 57.2 °F 57.2 °F 100% 30.03 in 9.0 mi Calm Calm - N/A   Mostly Cloudy
6:50 AM 57.2 °F 57.2 °F 100% 30.03 in 6.0 mi Calm Calm - N/A Rain Light Rain
7:50 AM 57.2 °F 57.2 °F 100% 30.04 in 7.0 mi Calm Calm - N/A   Mostly Cloudy
8:50 AM 59.0 °F 59.0 °F 100% 30.05 in 10.0 mi Calm Calm - N/A   Mostly Cloudy
9:50 AM 64.4 °F 59.0 °F 83% 30.07 in 10.0 mi South 5.8 mph - N/A   Overcast
10:50 AM 68.0 °F 59.0 °F 73% 30.06 in 10.0 mi South 8.1 mph - N/A   Mostly Cloudy
11:50 AM 71.6 °F 60.8 °F 69% 30.05 in 10.0 mi South 5.8 mph - N/A   Mostly Cloudy
12:50 PM 73.4 °F 60.8 °F 65% 30.03 in 10.0 mi SSW 11.5 mph - N/A   Mostly Cloudy
1:50 PM 78.8 °F 59.0 °F 51% 30.00 in 10.0 mi WSW 11.5 mph 17.3 mph N/A   Mostly Cloudy
2:50 PM 78.8 °F 60.8 °F 54% 29.95 in 10.0 mi WSW 16.1 mph 23.0 mph N/A   Mostly Cloudy
3:50 PM 78.8 °F 60.8 °F 54% 29.92 in 10.0 mi WSW 15.0 mph 19.6 mph N/A   Scattered Clouds
5:55 PM 77.0 °F 60.8 °F 57% 29.92 in 10.0 mi SSW 8.1 mph - N/A   Scattered Clouds
6:55 PM 75.2 °F 62.6 °F 65% 29.92 in 10.0 mi SW 4.6 mph - N/A   Partly Cloudy
7:50 PM 73.4 °F 62.6 °F 69% 29.90 in 10.0 mi South 5.8 mph - N/A   Partly Cloudy
8:15 PM 71.6 °F 62.6 °F 73% 29.89 in 10.0 mi South 3.5 mph - N/A   Clear
8:35 PM 71.6 °F 62.6 °F 73% 29.88 in 10.0 mi South 3.5 mph - N/A   Clear
8:55 PM 69.8 °F 62.6 °F 78% 29.88 in 10.0 mi Calm Calm - N/A   Clear
9:15 PM 66.2 °F 60.8 °F 83% 29.89 in 10.0 mi Calm Calm - N/A   Clear
9:35 PM 64.4 °F 60.8 °F 88% 29.90 in 10.0 mi Calm Calm - N/A   Clear
9:55 PM 64.4 °F 60.8 °F 88% 29.91 in 10.0 mi Calm Calm - N/A   Clear
10:15 PM 62.6 °F 59.0 °F 88% 29.92 in 10.0 mi Calm Calm - N/A   Clear
10:35 PM 64.4 °F 59.0 °F 83% 29.92 in 10.0 mi SSW 5.8 mph - N/A   Clear
10:55 PM 66.2 °F 62.6 °F 88% 29.94 in 9.0 mi WSW 5.8 mph - N/A   Partly Cloudy
11:15 PM 66.2 °F 62.6 °F 88% 29.94 in 5.0 mi SSW 5.8 mph - N/A   Mostly Cloudy
11:55 PM 66.2 °F 62.6 °F 88% 29.96 in 4.0 mi Calm Calm - N/A   Scattered Clouds